TimeCDT,TemperatureF,Dew PointF,Humidity,Sea Level PressureIn,VisibilityMPH,Wind Direction,Wind SpeedMPH,Gust SpeedMPH,PrecipitationIn,Events,Conditions,WindDirDegrees,DateUTC
12:52 AM,70.0,66.0,87,29.94,10.0,Calm,Calm,-,N/A,,Scattered Clouds,0,2013-06-28 05:52:00
1:52 AM,69.1,64.9,87,29.93,10.0,Calm,Calm,-,N/A,,Partly Cloudy,0,2013-06-28 06:52:00
2:52 AM,70.0,64.9,84,29.92,10.0,Calm,Calm,-,N/A,,Partly Cloudy,0,2013-06-28 07:52:00
3:52 AM,71.1,62.1,73,29.91,10.0,Variable,3.5,-,N/A,,Scattered Clouds,0,2013-06-28 08:52:00
4:52 AM,68.0,62.1,81,29.93,10.0,North,4.6,-,N/A,,Partly Cloudy,360,2013-06-28 09:52:00
5:52 AM,66.9,62.1,84,29.93,10.0,North,4.6,-,N/A,,Scattered Clouds,10,2013-06-28 10:52:00
6:52 AM,69.1,63.0,81,29.96,10.0,Calm,Calm,-,N/A,,Partly Cloudy,0,2013-06-28 11:52:00
7:52 AM,72.0,64.0,76,29.96,10.0,North,5.8,-,N/A,,Partly Cloudy,350,2013-06-28 12:52:00
8:52 AM,75.0,62.1,64,29.97,10.0,North,10.4,-,N/A,,Clear,350,2013-06-28 13:52:00
9:52 AM,79.0,63.0,58,29.97,10.0,NNW,9.2,-,N/A,,Clear,340,2013-06-28 14:52:00
10:52 AM,81.0,62.1,52,29.96,10.0,NNW,11.5,-,N/A,,Clear,330,2013-06-28 15:52:00
11:52 AM,82.0,61.0,49,29.96,10.0,NNW,17.3,27.6,N/A,,Partly Cloudy,330,2013-06-28 16:52:00
12:52 PM,84.0,59.0,43,29.95,10.0,NW,19.6,26.5,N/A,,Partly Cloudy,320,2013-06-28 17:52:00
1:52 PM,84.0,57.9,41,29.93,10.0,NNW,17.3,26.5,N/A,,Partly Cloudy,330,2013-06-28 18:52:00
2:52 PM,84.9,55.0,36,29.91,10.0,NNW,19.6,34.5,N/A,,Partly Cloudy,330,2013-06-28 19:52:00
3:52 PM,84.9,55.9,37,29.91,10.0,NW,23.0,29.9,N/A,,Scattered Clouds,320,2013-06-28 20:52:00
4:52 PM,86.0,57.9,38,29.90,10.0,NW,19.6,27.6,N/A,,Scattered Clouds,320,2013-06-28 21:52:00
5:52 PM,84.9,57.0,38,29.88,10.0,NNW,16.1,32.2,N/A,,Scattered Clouds,330,2013-06-28 22:52:00
6:52 PM,84.0,55.0,37,29.87,10.0,NNW,16.1,28.8,N/A,,Partly Cloudy,340,2013-06-28 23:52:00
7:52 PM,81.0,52.0,36,29.87,10.0,NNW,18.4,27.6,N/A,,Partly Cloudy,340,2013-06-29 00:52:00
8:52 PM,77.0,53.1,43,29.87,10.0,NW,12.7,-,N/A,,Clear,320,2013-06-29 01:52:00
9:52 PM,73.9,54.0,50,29.88,10.0,NW,12.7,-,N/A,,Clear,320,2013-06-29 02:52:00
10:52 PM,70.0,55.9,61,29.89,10.0,North,5.8,-,N/A,,Clear,360,2013-06-29 03:52:00
11:52 PM,66.9,55.9,68,29.89,10.0,North,5.8,-,N/A,,Clear,350,2013-06-29 04:52:00